| time (UTC) | temp F | wind direction | speed MPH | gust MPH | rain 1hr in | rain 24hr in | rain mn in | humidity % | barometer mb |
| 20260903050322 | 64 | 327 | 0.0 | 0.0 | 0.00 | 0.01 | 0.00 | 95 | 1018.5 |
| 20260903045315 | 64 | 327 | 0.0 | 0.0 | 0.00 | 0.01 | 0.00 | 95 | 1018.5 |
| 20260903044336 | 64 | 327 | 0.0 | 0.0 | 0.00 | 0.01 | 0.00 | 94 | 1018.6 |
| 20260903043330 | 64 | 327 | 0.0 | 0.0 | 0.00 | 0.01 | 0.00 | 94 | 1018.7 |
| 20260903042323 | 64 | 327 | 0.0 | 0.0 | 0.00 | 0.01 | 0.00 | 94 | 1018.8 |
| 20260903041318 | 64 | 327 | 0.0 | 0.0 | 0.00 | 0.01 | 0.00 | 94 | 1018.9 |
| 20260903040334 | 64 | 327 | 0.0 | 0.0 | 0.00 | 0.01 | 0.00 | 94 | 1019.0 |
| 20260903035338 | 64 | 327 | 0.0 | 0.0 | 0.00 | 0.02 | 0.01 | 94 | 1019.2 |
| 20260903034311 | 64 | 327 | 0.0 | 0.0 | 0.00 | 0.02 | 0.01 | 94 | 1019.0 |
| 20260903033335 | 64 | 327 | 0.0 | 0.0 | 0.00 | 0.02 | 0.01 | 94 | 1018.6 |
| 20260903032326 | 64 | 327 | 0.0 | 0.0 | 0.00 | 0.02 | 0.01 | 93 | 1018.7 |
| 20260903031348 | 64 | 327 | 0.0 | 0.0 | 0.00 | 0.02 | 0.01 | 93 | 1018.8 |
| 20260903030324 | 64 | 327 | 0.0 | 0.0 | 0.00 | 0.02 | 0.01 | 93 | 1019.2 |
| 20260903025318 | 64 | 327 | 0.0 | 0.0 | 0.00 | 0.02 | 0.01 | 93 | 1019.2 |
| 20260903024313 | 64 | 327 | 0.0 | 0.0 | 0.00 | 0.02 | 0.01 | 93 | 1019.7 |
| 20260903023331 | 64 | 327 | 0.0 | 0.0 | 0.00 | 0.02 | 0.01 | 93 | 1019.8 |
| 20260903022324 | 64 | 327 | 0.0 | 0.0 | 0.00 | 0.02 | 0.01 | 93 | 1019.9 |
| 20260903021345 | 64 | 327 | 0.0 | 0.0 | 0.00 | 0.02 | 0.01 | 93 | 1019.8 |
| 20260903020320 | 64 | 327 | 0.0 | 0.0 | 0.00 | 0.02 | 0.01 | 93 | 1020.2 |
| 20260903015312 | 64 | 327 | 0.0 | 0.0 | 0.00 | 0.02 | 0.01 | 93 | 1020.1 |
| 20260903014332 | 64 | 327 | 0.0 | 0.0 | 0.00 | 0.02 | 0.01 | 93 | 1020.1 |
| 20260903013328 | 64 | 327 | 0.0 | 0.0 | 0.00 | 0.02 | 0.01 | 93 | 1020.0 |
| 20260903012321 | 64 | 327 | 0.0 | 0.0 | 0.00 | 0.02 | 0.01 | 93 | 1020.2 |
| 20260903011314 | 64 | 327 | 0.0 | 0.0 | 0.00 | 0.02 | 0.01 | 92 | 1020.2 |
| 20260903010325 | 64 | 327 | 0.0 | 0.0 | 0.00 | 0.02 | 0.01 | 92 | 1020.1 |
| 20260903005315 | 64 | 327 | 0.0 | 0.0 | 0.00 | 0.02 | 0.01 | 92 | 1020.1 |
| 20260903004335 | 64 | 327 | 0.0 | 0.0 | 0.00 | 0.02 | 0.01 | 92 | 1020.2 |
| 20260903003326 | 65 | 327 | 0.0 | 0.0 | 0.00 | 0.02 | 0.01 | 92 | 1020.3 |
| 20260903002319 | 65 | 327 | 0.0 | 0.0 | 0.00 | 0.02 | 0.01 | 92 | 1020.1 |
| 20260903001312 | 65 | 327 | 0.0 | 0.0 | 0.00 | 0.02 | 0.01 | 92 | 1019.9 |
| 20260903000332 | 65 | 327 | 0.0 | 1.0 | 0.00 | 0.02 | 0.01 | 91 | 1019.6 |
| 20260902235327 | 65 | 328 | 0.0 | 1.0 | 0.00 | 0.04 | 0.01 | 91 | 1019.5 |
| 20260902234320 | 65 | 327 | 0.0 | 0.0 | 0.00 | 0.04 | 0.01 | 91 | 1019.9 |
| 20260902233315 | 65 | 281 | 0.0 | 0.0 | 0.00 | 0.04 | 0.01 | 91 | 1020.1 |
| 20260902232328 | 65 | 281 | 0.0 | 0.0 | 0.00 | 0.04 | 0.01 | 90 | 1019.9 |
| 20260902231319 | 66 | 281 | 0.0 | 0.0 | 0.00 | 0.04 | 0.01 | 90 | 1020.3 |
| 20260902230338 | 66 | 281 | 0.0 | 0.0 | 0.00 | 0.04 | 0.01 | 90 | 1020.5 |
| 20260902225328 | 67 | 281 | 0.0 | 0.0 | 0.00 | 0.04 | 0.01 | 89 | 1020.5 |
| 20260902224321 | 67 | 281 | 0.0 | 0.0 | 0.00 | 0.04 | 0.01 | 88 | 1020.9 |
| 20260902223315 | 68 | 281 | 0.0 | 0.0 | 0.00 | 0.04 | 0.01 | 87 | 1021.0 |
| 20260902222335 | 69 | 281 | 0.0 | 0.0 | 0.00 | 0.04 | 0.01 | 85 | 1021.1 |
| 20260902221328 | 69 | 282 | 0.0 | 3.0 | 0.00 | 0.04 | 0.01 | 86 | 1021.0 |
| 20260902220323 | 68 | 293 | 0.0 | 0.0 | 0.00 | 0.04 | 0.01 | 87 | 1021.0 |
| 20260902215313 | 67 | 293 | 0.0 | 0.0 | 0.00 | 0.04 | 0.01 | 86 | 1021.0 |
| 20260902214333 | 67 | 292 | 0.0 | 0.0 | 0.00 | 0.04 | 0.01 | 89 | 1021.0 |
| 20260902213330 | 68 | 292 | 0.0 | 0.0 | 0.00 | 0.04 | 0.01 | 89 | 1020.9 |
| 20260902212325 | 68 | 292 | 0.0 | 0.0 | 0.00 | 0.04 | 0.01 | 88 | 1020.9 |
| 20260902211320 | 68 | 292 | 0.0 | 0.0 | 0.00 | 0.04 | 0.01 | 87 | 1021.0 |
| 20260902210314 | 68 | 292 | 0.0 | 0.0 | 0.00 | 0.04 | 0.01 | 89 | 1020.8 |
| 20260902205333 | 68 | 292 | 0.0 | 0.0 | 0.00 | 0.04 | 0.01 | 90 | 1020.6 |
| 20260902204351 | 68 | 292 | 0.0 | 0.0 | 0.00 | 0.04 | 0.01 | 89 | 1020.9 |
| 20260902203321 | 68 | 292 | 0.0 | 0.0 | 0.01 | 0.04 | 0.01 | 90 | 1021.1 |
| 20260902202318 | 67 | 292 | 0.0 | 0.0 | 0.01 | 0.04 | 0.01 | 90 | 1020.7 |
| 20260902201329 | 68 | 292 | 0.0 | 0.0 | 0.01 | 0.04 | 0.01 | 90 | 1020.5 |
| 20260902200347 | 67 | 292 | 0.0 | 0.0 | 0.01 | 0.04 | 0.01 | 91 | 1020.4 |
| 20260902195321 | 67 | 292 | 0.0 | 0.0 | 0.01 | 0.04 | 0.01 | 89 | 1020.7 |
| 20260902194315 | 66 | 292 | 0.0 | 0.0 | 0.01 | 0.04 | 0.01 | 88 | 1020.9 |
| 20260902193334 | 66 | 292 | 0.0 | 0.0 | 0.00 | 0.03 | 0.00 | 87 | 1021.0 |
| 20260902192327 | 66 | 292 | 0.0 | 0.0 | 0.00 | 0.03 | 0.00 | 89 | 1021.3 |
| 20260902191337 | 67 | 292 | 0.0 | 0.0 | 0.00 | 0.03 | 0.00 | 87 | 1021.6 |
| 20260902190337 | 67 | 292 | 0.0 | 0.0 | 0.00 | 0.03 | 0.00 | 85 | 1021.5 |
| 20260902185330 | 67 | 292 | 0.0 | 0.0 | 0.00 | 0.03 | 0.00 | 85 | 1021.3 |
| 20260902184322 | 68 | 292 | 0.0 | 0.0 | 0.00 | 0.03 | 0.00 | 83 | 1021.2 |
| 20260902183315 | 69 | 292 | 0.0 | 1.0 | 0.00 | 0.03 | 0.00 | 81 | 1021.1 |
| 20260902182337 | 69 | 292 | 0.0 | 0.0 | 0.00 | 0.03 | 0.00 | 77 | 1021.1 |
| 20260902181330 | 70 | 292 | 0.0 | 0.0 | 0.00 | 0.03 | 0.00 | 78 | 1021.2 |
| 20260902180322 | 70 | 292 | 0.0 | 1.0 | 0.00 | 0.03 | 0.00 | 79 | 1021.5 |
| 20260902175315 | 70 | 292 | 0.0 | 1.0 | 0.00 | 0.03 | 0.00 | 78 | 1021.5 |
| 20260902174327 | 70 | 292 | 0.0 | 0.0 | 0.00 | 0.03 | 0.00 | 81 | 1021.6 |
| 20260902173323 | 70 | 291 | 0.0 | 0.0 | 0.00 | 0.03 | 0.00 | 81 | 1021.5 |
| 20260902172316 | 70 | 291 | 0.0 | 0.0 | 0.00 | 0.03 | 0.00 | 81 | 1021.5 |
| 20260902171340 | 71 | 291 | 0.0 | 1.0 | 0.00 | 0.03 | 0.00 | 76 | 1021.6 |
| 20260902170338 | 71 | 292 | 0.0 | 0.0 | 0.00 | 0.03 | 0.00 | 78 | 1021.4 |
| 20260902165331 | 71 | 292 | 0.0 | 1.0 | 0.00 | 0.03 | 0.00 | 76 | 1021.3 |
| 20260902164325 | 71 | 280 | 0.0 | 1.0 | 0.00 | 0.03 | 0.00 | 77 | 1021.1 |
| 20260902163343 | 70 | 280 | 0.0 | 0.0 | 0.00 | 0.03 | 0.00 | 80 | 1021.2 |
| 20260902162319 | 69 | 288 | 0.0 | 0.0 | 0.00 | 0.03 | 0.00 | 84 | 1021.3 |
| 20260902161334 | 69 | 288 | 0.0 | 0.0 | 0.00 | 0.03 | 0.00 | 84 | 1021.3 |
| 20260902160335 | 69 | 287 | 0.0 | 3.0 | 0.00 | 0.03 | 0.00 | 83 | 1021.4 |
| 20260902155327 | 69 | 283 | 0.0 | 1.0 | 0.00 | 0.03 | 0.00 | 83 | 1021.4 |
| 20260902154346 | 69 | 302 | 0.0 | 1.0 | 0.00 | 0.03 | 0.00 | 86 | 1021.5 |
| 20260902153345 | 68 | 302 | 0.0 | 1.0 | 0.00 | 0.03 | 0.00 | 85 | 1021.6 |
| 20260902152315 | 68 | 300 | 0.0 | 1.0 | 0.00 | 0.03 | 0.00 | 87 | 1021.9 |
| 20260902151334 | 67 | 300 | 0.0 | 1.0 | 0.00 | 0.03 | 0.00 | 86 | 1021.9 |
| 20260902150332 | 67 | 304 | 0.0 | 0.0 | 0.00 | 0.03 | 0.00 | 88 | 1022.0 |
| 20260902145325 | 66 | 305 | 0.0 | 1.0 | 0.00 | 0.04 | 0.00 | 89 | 1022.0 |
| 20260902144320 | 66 | 272 | 0.0 | 0.0 | 0.00 | 0.04 | 0.00 | 90 | 1022.0 |
| 20260902143313 | 65 | 272 | 0.0 | 1.0 | 0.00 | 0.04 | 0.00 | 88 | 1022.0 |
| 20260902142333 | 65 | 274 | 0.0 | 0.0 | 0.00 | 0.04 | 0.00 | 91 | 1022.0 |
| 20260902141329 | 65 | 274 | 0.0 | 0.0 | 0.00 | 0.04 | 0.00 | 92 | 1022.3 |
| 20260902140319 | 65 | 274 | 0.0 | 1.0 | 0.00 | 0.04 | 0.00 | 91 | 1022.2 |
| 20260902135312 | 65 | 274 | 0.0 | 1.0 | 0.00 | 0.11 | 0.00 | 91 | 1021.9 |
| 20260902134336 | 64 | 274 | 0.0 | 0.0 | 0.00 | 0.11 | 0.00 | 91 | 1021.7 |
| 20260902133333 | 64 | 274 | 0.0 | 1.0 | 0.00 | 0.11 | 0.00 | 93 | 1021.7 |
| 20260902132330 | 64 | 271 | 0.0 | 1.0 | 0.00 | 0.11 | 0.00 | 91 | 1021.6 |
| 20260902131325 | 64 | 271 | 0.0 | 0.0 | 0.00 | 0.11 | 0.00 | 93 | 1021.5 |
| 20260902130318 | 63 | 271 | 0.0 | 1.0 | 0.00 | 0.11 | 0.00 | 94 | 1021.5 |
| 20260902125313 | 63 | 271 | 0.0 | 0.0 | 0.00 | 0.12 | 0.00 | 93 | 1021.3 |
| 20260902124329 | 63 | 271 | 0.0 | 1.0 | 0.00 | 0.12 | 0.00 | 93 | 1021.3 |
| 20260902123327 | 63 | 287 | 0.0 | 1.0 | 0.00 | 0.12 | 0.00 | 94 | 1021.2 |
| 20260902122323 | 62 | 322 | 0.0 | 1.0 | 0.00 | 0.12 | 0.00 | 94 | 1021.3 |
| 20260902121313 | 62 | 290 | 0.0 | 2.0 | 0.00 | 0.12 | 0.00 | 95 | 1021.2 |
| 20260902120335 | 62 | 286 | 0.0 | 0.0 | 0.00 | 0.12 | 0.00 | 96 | 1021.2 |
| 20260902115336 | 61 | 286 | 0.0 | 0.0 | 0.00 | 0.12 | 0.00 | 96 | 1021.4 |
| 20260902114329 | 61 | 286 | 0.0 | 1.0 | 0.00 | 0.12 | 0.00 | 96 | 1021.6 |
| 20260902113349 | 61 | 298 | 0.0 | 0.0 | 0.00 | 0.12 | 0.00 | 96 | 1021.5 |
| 20260902112325 | 61 | 298 | 0.0 | 1.0 | 0.00 | 0.12 | 0.00 | 97 | 1021.6 |
| 20260902111319 | 61 | 298 | 0.0 | 0.0 | 0.00 | 0.12 | 0.00 | 97 | 1021.5 |
| 20260902110314 | 61 | 298 | 0.0 | 1.0 | 0.00 | 0.12 | 0.00 | 97 | 1021.2 |
| 20260902105337 | 61 | 298 | 0.0 | 1.0 | 0.00 | 0.12 | 0.00 | 97 | 1021.3 |
| 20260902104330 | 61 | 297 | 0.0 | 0.0 | 0.00 | 0.12 | 0.00 | 97 | 1021.2 |
| 20260902103322 | 61 | 297 | 0.0 | 1.0 | 0.00 | 0.12 | 0.00 | 97 | 1021.3 |
| 20260902102342 | 61 | 297 | 0.0 | 0.0 | 0.00 | 0.12 | 0.00 | 97 | 1021.1 |
| 20260902101316 | 61 | 297 | 0.0 | 0.0 | 0.00 | 0.12 | 0.00 | 97 | 1021.0 |
| 20260902100347 | 61 | 297 | 0.0 | 0.0 | 0.00 | 0.12 | 0.00 | 97 | 1021.1 |
| 20260902095321 | 61 | 297 | 0.0 | 0.0 | 0.00 | 0.12 | 0.00 | 97 | 1020.9 |
| 20260902094358 | 61 | 297 | 0.0 | 0.0 | 0.00 | 0.12 | 0.00 | 97 | 1020.7 |
| 20260902093326 | 61 | 297 | 0.0 | 0.0 | 0.00 | 0.12 | 0.00 | 97 | 1020.6 |
| 20260902092344 | 61 | 297 | 0.0 | 0.0 | 0.00 | 0.12 | 0.00 | 97 | 1020.6 |
| 20260902091318 | 61 | 297 | 0.0 | 0.0 | 0.00 | 0.12 | 0.00 | 96 | 1020.3 |
| 20260902090357 | 61 | 297 | 0.0 | 0.0 | 0.00 | 0.12 | 0.00 | 96 | 1020.3 |
| 20260902085330 | 61 | 297 | 0.0 | 0.0 | 0.00 | 0.12 | 0.00 | 96 | 1020.3 |
| 20260902084324 | 61 | 297 | 0.0 | 0.0 | 0.00 | 0.12 | 0.00 | 96 | 1020.1 |
| 20260902083342 | 61 | 310 | 0.0 | 1.0 | 0.00 | 0.12 | 0.00 | 96 | 1020.1 |
| 20260902082314 | 61 | 285 | 0.0 | 1.0 | 0.00 | 0.12 | 0.00 | 97 | 1019.9 |
| 20260902081333 | 61 | 283 | 0.0 | 1.0 | 0.00 | 0.12 | 0.00 | 97 | 1020.0 |
| 20260902080334 | 61 | 284 | 0.0 | 0.0 | 0.00 | 0.12 | 0.00 | 97 | 1019.9 |
| 20260902075327 | 61 | 284 | 0.0 | 1.0 | 0.00 | 0.21 | 0.00 | 97 | 1019.9 |
| 20260902074321 | 61 | 283 | 0.0 | 1.0 | 0.00 | 0.21 | 0.00 | 97 | 1019.9 |
| 20260902073313 | 61 | 282 | 0.0 | 1.0 | 0.00 | 0.21 | 0.00 | 97 | 1019.8 |
| 20260902072334 | 61 | 281 | 0.0 | 1.0 | 0.00 | 0.21 | 0.00 | 97 | 1019.8 |
| 20260902071336 | 61 | 281 | 0.0 | 1.0 | 0.00 | 0.21 | 0.00 | 97 | 1019.6 |
| 20260902070331 | 61 | 281 | 0.0 | 1.0 | 0.00 | 0.21 | 0.00 | 97 | 1019.9 |
| 20260902065325 | 61 | 281 | 0.0 | 1.0 | 0.00 | 0.33 | 0.00 | 97 | 1019.8 |
| 20260902064318 | 61 | 280 | 0.0 | 0.0 | 0.00 | 0.33 | 0.00 | 97 | 1019.8 |
| 20260902063329 | 61 | 280 | 0.0 | 0.0 | 0.00 | 0.33 | 0.00 | 97 | 1019.8 |
| 20260902062352 | 61 | 280 | 0.0 | 1.0 | 0.00 | 0.33 | 0.00 | 97 | 1019.8 |
| 20260902061324 | 62 | 280 | 0.0 | 1.0 | 0.00 | 0.33 | 0.00 | 97 | 1019.8 |
| 20260902060337 | 61 | 281 | 0.0 | 0.0 | 0.00 | 0.33 | 0.00 | 97 | 1019.8 |
| 20260902055331 | 62 | 281 | 0.0 | 0.0 | 0.00 | 0.35 | 0.00 | 97 | 1020.0 |
| 20260902054324 | 61 | 281 | 0.0 | 1.0 | 0.00 | 0.35 | 0.00 | 97 | 1019.9 |
| 20260902053343 | 61 | 281 | 0.0 | 1.0 | 0.00 | 0.35 | 0.00 | 97 | 1020.1 |
| 20260902052315 | 61 | 281 | 0.0 | 0.0 | 0.00 | 0.35 | 0.00 | 97 | 1019.9 |